Simultaneous Nadir Overpasses (SNOs) Predictions

Prediction of SNOs between LANDSAT-8 and METOP-B Satellite Orbit:

Table of predicted SNOs for the next 14.0 days since TLE Epoch: 8/18/2017
Index Date (LANDSAT-8) Time (LANDSAT-8) Lat,Lon (LANDSAT-8) SZA (LANDSAT-8 ) Date (METOP-B) Time (METOP-B) Lat,Lon (METOP-B) SZA (METOP-B ) Distance(km) Time Diff (sec)
1 08/20/2017 00:55:54 81.18,-153.06 70.85 08/20/2017 00:54:44 81.18,-153.25 70.80 3.20 70
2 08/20/2017 01:45:20 -81.20, 14.89 109.09 08/20/2017 01:45:23 -81.20, 14.89 109.09 0.40 3
3 08/22/2017 20:30:10 81.18, -86.66 71.80 08/22/2017 20:29:04 81.18, -86.84 71.76 3.06 66
4 08/22/2017 21:19:36 -81.20, 81.32 108.14 08/22/2017 21:19:43 -81.20, 81.34 108.13 0.68 7
5 08/25/2017 16:04:24 81.20, -19.92 72.83 08/25/2017 16:03:22 81.19, -20.07 72.78 2.64 62
6 08/25/2017 16:53:50 -81.22, 148.09 107.11 08/25/2017 16:54:01 -81.22, 148.15 107.10 1.10 11
7 08/28/2017 11:38:40 81.19, 46.43 73.82 08/28/2017 11:37:42 81.19, 46.32 73.78 1.91 58
8 08/28/2017 12:28:06 -81.21,-145.54 106.12 08/28/2017 12:28:21 -81.22,-145.43 106.10 1.83 15
9 08/31/2017 07:12:56 81.18, 112.76 74.82 08/31/2017 07:12:02 81.19, 112.70 74.80 1.08 54




NCC Satellite Simultaneous Nadir Overpasses (SNOs) Prediction Service
